Regional Weather Roundup
Issued by NWS Spokane, WA

Home | Current Version | Previous Version | Text Only | Print | Product List | Glossary On
Versions: 1 2 3 4 5 6 7 8 9 10 11 12 13 14 15 16 17 18 19 20 21 22 23 24 25 26 27 28 29 30 31 32 33 34 35 36 37 38 39 40 41 42 43 44 45 46 47 48 49 50
000
NZUS01 KOTX 212210
RWROTX
EASTERN WASHINGTON/NORTHERN IDAHO ROUNDUP
NATIONAL WEATHER SERVICE, SPOKANE WA
300 PM PDT SUN SEP 21 2014

Note: "fair" indicated few or no clouds below 12,000 feet with no
significant weather and/or obstructions to visibility.

...NORTHEAST WASHINGTON AND NORTHERN IDAHO PANHANDLE...

CITY           SKY/WX    TMP DP  RH WIND       PRES   REMARKS
SPOKANE INTL   MOSUNNY   86  40  19 N5        29.94F
SPOKANE DOWNTO SUNNY     88  39  17 CALM      29.92F
COEUR D ALENE  SUNNY     88  45  22 NE6       29.92F
DEER PARK      SUNNY     86  43  22 S3        29.93F
SANDPOINT      SUNNY     82  45  26 NE7       29.94F

...SOUTHEAST WASHINGTON AND SOUTHERN IDAHO PANHANDLE...

CITY           SKY/WX    TMP DP  RH WIND       PRES   REMARKS
WALLA WALLA    SUNNY     85  46  25 VRB3      29.88F
PULLMAN/MOSCOW SUNNY     88  38  17 VRB3      29.95F
LEWISTON       SUNNY     88  41  19 W3        29.87F
LOWELL           N/A     83  54  36 CALM      29.85F

...COLUMBIA BASIN...

CITY           SKY/WX    TMP DP  RH WIND       PRES   REMARKS
EPHRATA        SUNNY     89  39  17 CALM      29.88F
MOSES LAKE     SUNNY     89  41  18 VRB5      29.88F
TRI CITIES     SUNNY     85  53  33 NW6       29.85F
HERMISTON      SUNNY     87  47  24 CALM      29.84F
PENDLETON      SUNNY     88  40  18 N9        29.87F

...EAST SLOPES CASCADES...

CITY           SKY/WX    TMP DP  RH WIND       PRES   REMARKS
THE DALLES     MOSUNNY   91  44  19 NE8       29.81F
YAKIMA         SUNNY     87  47  24 E5        29.88F
ELLENSBURG     SUNNY     90  44  20 NE7       29.90F
WENATCHEE      SUNNY     87  41  19 VRB3      29.88F
OMAK           SUNNY     87  42  20 S8        29.89F

...SOUTHERN BRITISH COLUMBIA...

CITY           SKY/WX    TMP DP  RH WIND       PRES   REMARKS
PENTICTON      MOSUNNY   75  48  38 N9        29.87F
CASTLEGAR      SUNNY     77  50  38 NW6       29.92F

...WESTERN MONTANA...

CITY           SKY/WX    TMP DP  RH WIND       PRES   REMARKS
MISSOULA       SUNNY     85  40  20 CALM      30.00F

...NEIGHBORING CITIES...

CITY           SKY/WX    TMP DP  RH WIND       PRES   REMARKS
SEATTLE        SUNNY     78  57  48 SW9       29.87S



USA.gov is the U.S. government's official web portal to all federal, state and local government web resources and services.